Date String (YYYY-MM-DD hh:mm:ss) UTC,Instrument flags,Ambient pressure (hPa),Sample flow (lpm),Bypass flow (lpm),Sample temperature (°C),Ambient temperature (°C),ASC tube jacket temperature (°C),LED temperature (°C),Box temperature (°C),Sample RH (%),Span deviation,Mass concentration (μg/m³),Mass concentration (μg/m³),Mass concentration (μg/m³)
DateTimeUTC,F1_M11,P_M11,Q1_M11,Q2_M11,T1_M11,T2_M11,T3_M11,T4_M11,T5_M11,U1_M11,ZSPAN_M11,X0_M11,X2_M11,X1_M11
2022-09-26 19:00:00,,0832.8,4.99,0.00,30.0,28.6,00.0,38.6,31.9,15.7,0000.0,0009.65,0004.32,0003.80
2022-09-26 19:01:00,,0832.8,5.01,0.00,30.0,28.8,00.0,38.6,32.0,15.8,0000.0,0009.87,0004.39,0003.83
2022-09-26 19:02:00,,0832.8,5.00,0.00,30.1,28.9,00.0,38.7,32.0,15.6,0000.0,0010.17,0004.46,0003.86
2022-09-26 19:03:00,,0832.8,5.00,0.00,30.1,29.0,00.0,38.7,32.0,15.0,0000.0,0010.05,0004.45,0003.88
2022-09-26 19:04:00,,0832.8,5.01,0.00,30.1,28.3,00.0,38.7,32.0,14.9,0000.0,0009.71,0004.45,0003.91
2022-09-26 19:05:00,,0832.8,5.00,0.00,30.0,27.0,00.0,38.7,31.8,15.0,0000.0,0009.62,0004.49,0003.94
2022-09-26 19:06:00,,0832.8,5.00,0.00,30.0,26.6,00.0,38.6,31.7,15.4,0000.0,0009.55,0004.53,0003.96
2022-09-26 19:07:00,,0832.8,4.99,0.00,29.9,26.8,00.0,38.6,31.6,15.2,0000.0,0009.72,0004.57,0003.99
2022-09-26 19:08:00,,0832.8,5.00,0.00,29.9,27.1,00.0,38.6,31.6,15.3,0000.0,0010.15,0004.60,0004.02
2022-09-26 19:09:00,,0832.8,5.00,0.00,29.8,27.5,00.0,38.6,31.6,15.2,0000.0,0010.44,0004.66,0004.03
2022-09-26 19:10:00,,0832.8,5.01,0.00,29.8,27.8,00.0,38.5,31.7,15.2,0000.0,0010.10,0004.71,0004.05
2022-09-26 19:11:00,,0832.7,4.99,0.00,29.9,28.0,00.0,38.5,31.7,15.2,0000.0,0010.10,0004.73,0004.06
2022-09-26 19:12:00,,0832.7,5.01,0.00,29.9,28.3,00.0,38.5,31.7,15.3,0000.0,0010.03,0004.72,0004.06
2022-09-26 19:13:00,,0832.8,4.99,0.00,29.9,28.5,00.0,38.6,31.8,15.3,0000.0,0009.95,0004.71,0004.06
2022-09-26 19:14:00,,0832.8,5.01,0.00,29.9,28.6,00.0,38.6,31.8,15.5,0000.0,0009.80,0004.70,0004.06
2022-09-26 19:15:00,,0832.8,5.00,0.00,30.0,28.8,00.0,38.6,31.9,15.6,0000.0,0010.28,0004.74,0004.06
2022-09-26 19:16:00,,0832.8,5.00,0.00,30.0,28.9,00.0,38.6,32.0,15.2,0000.0,0010.98,0004.73,0004.05
2022-09-26 19:17:00,,0832.7,5.00,0.00,30.0,29.0,00.0,38.6,32.0,15.2,0000.0,0011.01,0004.70,0004.04
2022-09-26 19:18:00,,0832.7,5.02,0.00,30.1,28.1,00.0,38.6,31.9,15.4,0000.0,0011.00,0004.69,0004.04
2022-09-26 19:19:00,,0832.7,5.00,0.00,30.0,26.7,00.0,38.6,31.8,15.5,0000.0,0010.64,0004.70,0004.03
2022-09-26 19:20:00,,0832.7,5.00,0.00,30.0,26.5,00.0,38.5,31.8,15.5,0000.0,0010.57,0004.69,0004.04
2022-09-26 19:21:00,,0832.7,5.00,0.00,29.9,26.8,00.0,38.5,31.7,15.2,0000.0,0011.71,0004.67,0004.04
2022-09-26 19:22:00,,0832.8,5.00,0.00,29.8,27.1,00.0,38.5,31.6,15.0,0000.0,0012.00,0004.65,0004.04
2022-09-26 19:23:00,,0832.8,5.00,0.00,29.8,27.5,00.0,38.5,31.6,15.1,0000.0,0011.90,0004.63,0004.04
2022-09-26 19:24:00,,0832.8,4.99,0.00,29.8,27.8,00.0,38.5,31.6,15.4,0000.0,0011.86,0004.65,0004.05
2022-09-26 19:25:00,,0832.8,5.00,0.00,29.8,28.1,00.0,38.5,31.7,15.7,0000.0,0011.88,0004.71,0004.06
2022-09-26 19:26:00,,0832.8,5.00,0.00,29.8,28.3,00.0,38.5,31.7,16.0,0000.0,0011.45,0004.68,0004.07
2022-09-26 19:27:00,,0832.8,5.01,0.00,29.9,28.5,00.0,38.5,31.8,15.7,0000.0,0010.78,0004.70,0004.09
2022-09-26 19:28:00,,0832.7,4.99,0.00,29.9,28.6,00.0,38.5,31.9,15.7,0000.0,0010.86,0004.75,0004.11
2022-09-26 19:29:00,,0832.7,5.00,0.00,29.9,28.8,00.0,38.5,31.9,15.7,0000.0,0010.81,0004.74,0004.13
2022-09-26 19:30:00,,0832.7,5.01,0.00,30.0,28.9,00.0,38.6,32.0,15.5,0000.0,0010.91,0004.74,0004.12
2022-09-26 19:31:00,,0832.7,4.99,0.00,30.0,29.0,00.0,38.6,32.0,15.7,0000.0,0010.79,0004.73,0004.13
2022-09-26 19:32:00,,0832.6,5.01,0.00,30.0,27.9,00.0,38.6,31.9,16.0,0000.0,0009.53,0004.75,0004.13
2022-09-26 19:33:00,,0832.6,4.99,0.00,30.0,26.7,00.0,38.6,31.7,16.1,0000.0,0008.71,0004.77,0004.14
2022-09-26 19:34:00,,0832.7,5.00,0.00,29.9,26.6,00.0,38.5,31.7,16.2,0000.0,0008.84,0004.76,0004.14
2022-09-26 19:35:00,,0832.6,5.00,0.00,29.9,26.9,00.0,38.5,31.6,16.0,0000.0,0009.02,0004.78,0004.14
2022-09-26 19:36:00,,0832.6,5.01,0.00,29.8,27.2,00.0,38.5,31.6,15.8,0000.0,0008.99,0004.73,0004.13
2022-09-26 19:37:00,,0832.6,4.99,0.00,29.8,27.6,00.0,38.5,31.6,15.7,0000.0,0009.40,0004.77,0004.12
2022-09-26 19:38:00,,0832.6,5.00,0.00,29.8,27.9,00.0,38.5,31.7,15.9,0000.0,0009.37,0004.78,0004.11
2022-09-26 19:39:00,,0832.6,5.00,0.00,29.8,28.1,00.0,38.5,31.7,15.7,0000.0,0009.42,0004.76,0004.10
2022-09-26 19:40:00,,0832.6,5.00,0.00,29.8,28.4,00.0,38.5,31.8,15.9,0000.0,0009.47,0004.75,0004.08
2022-09-26 19:41:00,,0832.6,4.99,0.00,29.9,28.5,00.0,38.5,31.8,15.7,0000.0,0010.00,0004.81,0004.09
2022-09-26 19:42:00,,0832.6,5.00,0.00,29.9,28.7,00.0,38.5,31.9,15.7,0001.0,0010.35,0004.80,0004.09
2022-09-26 19:43:00,,0832.6,5.00,0.00,29.9,28.8,00.0,38.5,31.9,15.7,0001.6,0010.40,0004.79,0004.09
2022-09-26 19:44:00,,0832.6,5.00,0.00,30.0,28.9,00.0,38.5,32.0,15.8,0000.5,0010.35,0004.77,0004.08
2022-09-26 19:45:00,,0832.6,5.01,0.00,30.0,28.4,00.0,38.6,32.0,16.2,0000.0,0010.34,0004.77,0004.08
2022-09-26 19:46:00,,0832.6,5.00,0.00,30.0,27.0,00.0,38.5,31.8,16.0,0000.0,0010.75,0004.76,0004.07
2022-09-26 19:47:00,,0832.6,5.00,0.00,29.9,26.6,00.0,38.5,31.7,15.7,0000.0,0011.10,0004.76,0004.07
2022-09-26 19:48:00,,0832.6,5.00,0.00,29.9,26.8,00.0,38.5,31.7,15.7,0000.0,0010.64,0004.73,0004.06
2022-09-26 19:49:00,,0832.6,5.00,0.00,29.8,27.1,00.0,38.4,31.6,15.6,0000.0,0010.79,0004.74,0004.06
2022-09-26 19:50:00,,0832.6,4.99,0.00,29.8,27.4,00.0,38.4,31.6,15.5,0000.0,0010.72,0004.74,0004.06
2022-09-26 19:51:00,,0832.5,4.99,0.00,29.8,27.8,00.0,38.4,31.6,15.8,0000.0,0010.80,0004.76,0004.06
2022-09-26 19:52:00,,0832.5,5.01,0.00,29.8,28.0,00.0,38.4,31.7,15.7,0000.0,0010.69,0004.74,0004.05
2022-09-26 19:53:00,,0832.6,4.99,0.00,29.8,28.3,00.0,38.5,31.7,15.7,0000.0,0010.36,0004.77,0004.05
2022-09-26 19:54:00,,0832.5,5.01,0.00,29.8,28.4,00.0,38.5,31.7,15.6,0000.0,0010.21,0004.74,0004.03
2022-09-26 19:55:00,,0832.5,5.00,0.00,29.9,28.6,00.0,38.5,31.8,15.6,0000.0,0010.84,0004.72,0004.03
2022-09-26 19:56:00,,0832.5,5.00,0.00,29.9,28.8,00.0,38.5,31.9,15.6,0000.0,0012.75,0004.74,0004.03
2022-09-26 19:57:00,,0832.5,4.99,0.00,29.9,28.9,00.0,38.5,31.9,15.8,0000.0,0012.72,0004.73,0004.03
2022-09-26 19:58:00,,0832.4,5.01,0.00,30.0,29.0,00.0,38.5,32.0,15.7,0000.0,0012.74,0004.73,0004.03
2022-09-26 19:59:00,,0832.4,5.00,0.00,30.0,28.2,00.0,38.5,32.0,15.6,0000.0,0012.75,0004.71,0004.02
